EW0408 Weather Reports


Display with metric or nautical units.
time (UTC)temp
F
wind
direction
speed
MPH
gust
MPH
rain 1hr
in
rain 24hr
in
rain mn
in
humidity
%
barometer
mb
20191015161004 85 125 1.0 4.0 0.00 0.00 0.00 70 1018.2
20191015160504 84 102 1.0 3.0 0.00 0.00 0.00 71 1018.1
20191015160005 84 140 1.0 5.0 0.00 0.00 0.00 73 1018.2
20191015155504 83 184 1.0 6.0 0.00 0.00 0.00 72 1018.2
20191015155005 84 190 1.0 6.0 0.00 0.00 0.00 73 1018.3
20191015154504 83 184 1.0 3.0 0.00 0.00 0.00 74 1018.3
20191015154005 83 184 1.0 3.0 0.00 0.00 0.00 74 1018.3
20191015153504 82 198 1.0 3.0 0.00 0.00 0.00 75 1018.5
20191015153005 82 191 1.0 3.0 0.00 0.00 0.00 76 1018.5
20191015152504 82 175 1.0 3.0 0.00 0.00 0.00 76 1018.7
20191015152005 82 186 1.0 3.0 0.00 0.00 0.00 78 1018.7
20191015151504 81 170 1.0 2.0 0.00 0.00 0.00 78 1018.6
20191015151004 80 172 1.0 2.0 0.00 0.00 0.00 81 1018.7
20191015150504 80 190 1.0 2.0 0.00 0.00 0.00 81 1018.6
20191015150004 79 20 1.0 2.0 0.00 0.00 0.00 84 1018.6
20191015145504 79 61 1.0 3.0 0.00 0.00 0.00 85 1018.7
20191015145005 79 148 1.0 3.0 0.00 0.00 0.00 84 1018.7
20191015144504 78 205 0.0 3.0 0.00 0.00 0.00 85 1018.8
20191015144004 78 105 0.0 3.0 0.00 0.00 0.00 85 1018.8
20191015143503 78 55 0.0 2.0 0.00 0.00 0.00 87 1018.7
20191015143005 77 54 0.0 3.0 0.00 0.00 0.00 87 1018.6
20191015142504 77 52 1.0 3.0 0.00 0.00 0.00 88 1018.7
20191015142005 77 51 0.0 2.0 0.00 0.00 0.00 89 1018.7
20191015141504 76 51 0.0 2.0 0.00 0.00 0.00 89 1018.6
20191015141004 76 51 1.0 3.0 0.00 0.00 0.00 91 1018.7
20191015140504 76 50 1.0 3.0 0.00 0.00 0.00 92 1018.6
20191015140004 76 50 0.0 1.0 0.00 0.00 0.00 93 1018.5
20191015135504 75 51 0.0 1.0 0.00 0.00 0.00 94 1018.5
20191015135005 75 50 0.0 2.0 0.00 0.00 0.00 95 1018.6
20191015134504 74 50 0.0 2.0 0.00 0.00 0.00 97 1018.5
20191015134004 74 50 0.0 1.0 0.00 0.00 0.00 98 1018.6
20191015133504 73 50 0.0 1.0 0.00 0.00 0.00 98 1018.5
20191015133004 73 50 0.0 1.0 0.00 0.00 0.00 98 1018.5
20191015132503 73 50 0.0 2.0 0.00 0.00 0.00 99 1018.5
20191015132004 73 50 0.0 2.0 0.00 0.00 0.00 99 1018.5
20191015131504 73 50 0.0 1.0 0.00 0.00 0.00 99 1018.4
20191015131004 72 50 0.0 1.0 0.00 0.00 0.00 99 1018.4
20191015130504 72 50 0.0 1.0 0.00 0.00 0.00 99 1018.3
20191015130004 72 51 0.0 2.0 0.00 0.00 0.00 99 1018.3
20191015125504 71 50 1.0 3.0 0.00 0.00 0.00 99 1018.3
20191015125004 71 52 2.0 4.0 0.00 0.00 0.00 99 1018.3
20191015124504 71 63 2.0 4.0 0.00 0.00 0.00 99 1018.4
20191015124005 71 76 1.0 3.0 0.00 0.00 0.00 99 1018.3
20191015123504 71 95 1.0 3.0 0.00 0.00 0.00 99 1018.3
20191015123004 71 96 2.0 3.0 0.00 0.00 0.00 99 1018.4
20191015122504 71 95 1.0 3.0 0.00 0.00 0.00 99 1018.4
20191015122004 71 95 1.0 3.0 0.00 0.00 0.00 99 1018.4
20191015121504 70 95 0.0 3.0 0.00 0.00 0.00 99 1018.4
20191015121004 70 96 0.0 2.0 0.00 0.00 0.00 99 1018.2
20191015120505 70 95 0.0 2.0 0.00 0.00 0.00 99 1018.2
20191015120004 70 95 0.0 1.0 0.00 0.00 0.00 99 1018.3
20191015115504 70 95 0.0 1.0 0.00 0.00 0.00 98 1018.3
20191015115004 70 95 0.0 1.0 0.00 0.00 0.00 98 1018.3
20191015114505 70 0 0.0 0.0 0.00 0.00 0.00 98 1018.2
20191015114004 70 97 0.0 1.0 0.00 0.00 0.00 98 1018.1
20191015113504 70 97 0.0 1.0 0.00 0.00 0.00 98 1018.0
20191015113004 70 0 0.0 0.0 0.00 0.00 0.00 98 1017.9
20191015112504 71 0 0.0 0.0 0.00 0.00 0.00 99 1018.1
20191015112006 71 95 1.0 3.0 0.00 0.00 0.00 99 1018.0
20191015111505 71 85 2.0 5.0 0.00 0.00 0.00 99 1017.9
20191015111005 71 68 2.0 5.0 0.00 0.00 0.00 99 1017.9
20191015110504 70 40 2.0 3.0 0.00 0.00 0.00 99 1018.0
20191015110004 70 19 1.0 3.0 0.00 0.00 0.00 98 1018.1
20191015105504 69 284 0.0 2.0 0.00 0.00 0.00 98 1018.1
20191015105004 69 287 0.0 2.0 0.00 0.00 0.00 98 1018.1
20191015104504 70 0 0.0 0.0 0.00 0.00 0.00 98 1018.0
20191015104005 70 273 0.0 1.0 0.00 0.00 0.00 98 1018.1
20191015103504 70 273 1.0 2.0 0.00 0.00 0.00 98 1018.2
20191015103004 70 275 1.0 2.0 0.00 0.00 0.00 98 1018.1
20191015102504 70 278 0.0 2.0 0.00 0.00 0.00 98 1018.1
20191015102004 70 358 0.0 1.0 0.00 0.00 0.00 98 1017.8
20191015101504 70 274 0.0 1.0 0.00 0.00 0.00 98 1017.9
20191015101004 70 264 0.0 1.0 0.00 0.00 0.00 98 1017.9
20191015100504 70 257 0.0 1.0 0.00 0.00 0.00 98 1017.9
20191015100004 70 264 0.0 1.0 0.00 0.00 0.00 98 1017.8
20191015095504 70 264 0.0 1.0 0.00 0.00 0.00 98 1017.6
20191015095005 70 263 0.0 1.0 0.00 0.00 0.00 97 1017.7
20191015094504 70 278 0.0 1.0 0.00 0.00 0.00 97 1017.6
20191015094004 70 286 0.0 1.0 0.00 0.00 0.00 98 1017.6
20191015093503 70 256 0.0 1.0 0.00 0.00 0.00 98 1017.7
20191015093005 70 0 0.0 0.0 0.00 0.00 0.00 97 1017.8
20191015092504 70 281 0.0 1.0 0.00 0.00 0.00 97 1017.7
20191015092004 70 276 0.0 1.0 0.00 0.00 0.00 97 1017.7
20191015091504 70 270 0.0 1.0 0.00 0.00 0.00 97 1017.7
20191015091004 70 274 0.0 1.0 0.00 0.00 0.00 97 1017.6
20191015090504 70 274 0.0 1.0 0.00 0.00 0.00 97 1017.7
20191015090004 71 284 0.0 1.0 0.00 0.00 0.00 97 1017.6
20191015085504 71 281 0.0 1.0 0.00 0.00 0.00 97 1017.6
20191015085005 71 271 0.0 1.0 0.00 0.00 0.00 97 1017.6
20191015084504 71 265 0.0 1.0 0.00 0.00 0.00 97 1017.5
20191015084004 71 260 0.0 1.0 0.00 0.00 0.00 98 1017.5
20191015083504 71 271 0.0 1.0 0.00 0.00 0.00 98 1017.4
20191015083005 71 289 0.0 2.0 0.00 0.00 0.00 97 1017.5
20191015082504 71 284 0.0 2.0 0.00 0.00 0.00 97 1017.6
20191015082004 71 282 0.0 2.0 0.00 0.00 0.00 97 1017.6
20191015081504 71 287 0.0 1.0 0.00 0.00 0.00 98 1017.6
20191015081004 71 287 0.0 1.0 0.00 0.00 0.00 97 1017.7
20191015080504 71 276 0.0 1.0 0.00 0.00 0.00 97 1017.8
20191015080004 71 270 0.0 1.0 0.00 0.00 0.00 97 1017.8
20191015075504 71 275 0.0 1.0 0.00 0.00 0.00 97 1017.8
20191015075005 71 0 0.0 0.0 0.00 0.00 0.00 96 1017.9
20191015074504 71 253 0.0 1.0 0.00 0.00 0.00 96 1017.9
20191015074005 71 254 0.0 1.0 0.00 0.00 0.00 96 1017.9
20191015073504 71 256 0.0 1.0 0.00 0.00 0.00 96 1017.9
20191015073004 71 0 0.0 0.0 0.00 0.00 0.00 96 1018.0
20191015072504 71 0 0.0 0.0 0.00 0.00 0.00 96 1018.0
20191015072004 71 262 0.0 1.0 0.00 0.00 0.00 96 1018.0
20191015071505 71 270 0.0 1.0 0.00 0.00 0.00 96 1018.1
20191015071004 72 270 0.0 1.0 0.00 0.00 0.00 96 1018.1
20191015070504 72 306 0.0 1.0 0.00 0.00 0.00 96 1018.2
20191015070004 72 281 0.0 1.0 0.00 0.00 0.00 96 1018.2
20191015065505 72 273 1.0 3.0 0.00 0.00 0.00 96 1018.3
20191015065005 72 271 1.0 3.0 0.00 0.00 0.00 96 1018.3
20191015064504 72 270 1.0 2.0 0.00 0.00 0.00 96 1018.4
20191015064004 72 271 1.0 1.0 0.00 0.00 0.00 95 1018.3
20191015063504 72 269 0.0 2.0 0.00 0.00 0.00 95 1018.6
20191015063004 72 267 0.0 2.0 0.00 0.00 0.00 95 1018.5
20191015062505 72 273 1.0 2.0 0.00 0.00 0.00 96 1018.6
20191015062004 72 280 0.0 2.0 0.00 0.00 0.00 95 1018.6
20191015061504 72 280 0.0 1.0 0.00 0.00 0.00 95 1018.5
20191015061005 73 276 0.0 1.0 0.00 0.00 0.00 94 1018.5
20191015060504 73 274 0.0 1.0 0.00 0.00 0.00 94 1018.6
20191015060004 73 283 0.0 1.0 0.00 0.00 0.00 94 1018.5
20191015055504 73 284 0.0 2.0 0.00 0.00 0.00 94 1018.6
20191015055004 73 287 0.0 2.0 0.00 0.00 0.00 95 1018.6
20191015054504 73 290 0.0 2.0 0.00 0.00 0.00 95 1018.6
20191015054004 73 289 0.0 2.0 0.00 0.00 0.00 95 1018.7
20191015053504 73 292 0.0 2.0 0.00 0.00 0.00 95 1018.8
20191015053004 73 299 0.0 1.0 0.00 0.00 0.00 94 1018.7
20191015052505 73 291 0.0 2.0 0.00 0.00 0.00 94 1018.8
20191015052004 73 289 0.0 2.0 0.00 0.00 0.00 95 1018.8
20191015051504 73 286 0.0 2.0 0.00 0.00 0.00 94 1018.8
20191015051004 73 274 0.0 2.0 0.00 0.00 0.00 94 1018.8
20191015050504 73 113 0.0 2.0 0.00 0.00 0.00 94 1018.8
20191015050004 74 107 0.0 1.0 0.00 0.00 0.00 94 1018.8
20191015045504 74 107 0.0 1.0 0.00 0.00 0.00 94 1018.8
20191015045004 74 107 0.0 1.0 0.00 0.00 0.00 94 1018.8
20191015044505 74 107 0.0 1.0 0.00 0.00 0.00 93 1018.7
20191015044004 74 107 0.0 1.0 0.00 0.00 0.00 93 1018.7
20191015043504 74 107 0.0 2.0 0.00 0.00 0.00 93 1018.8
20191015043005 74 106 0.0 2.0 0.00 0.00 0.00 93 1018.8
20191015042504 74 104 0.0 2.0 0.00 0.00 0.00 92 1018.8
20191015042004 74 103 0.0 2.0 0.00 0.00 0.00 92 1018.9
20191015041504 74 103 0.0 2.0 0.00 0.00 0.00 92 1018.9
20191015041004 74 103 0.0 1.0 0.00 0.00 0.00 92 1019.0
20191015040504 74 103 0.0 1.0 0.00 0.00 0.00 92 1019.0
20191015040012 75 103 0.0 2.0 0.00 0.00 0.00 92 1019.1
20191015035504 75 103 0.0 2.0 0.00 0.00 0.00 92 1019.0
20191015035004 75 103 0.0 1.0 0.00 0.00 0.00 92 1019.1
20191015034505 75 103 0.0 1.0 0.00 0.00 0.00 92 1019.1
20191015034004 75 103 0.0 1.0 0.00 0.00 0.00 92 1019.0
20191015033504 75 103 0.0 1.0 0.00 0.00 0.00 92 1019.1
20191015033005 75 103 0.0 1.0 0.00 0.00 0.00 92 1019.0
20191015032504 75 103 0.0 2.0 0.00 0.00 0.00 92 1019.0
20191015032005 75 103 1.0 2.0 0.00 0.00 0.00 92 1018.9
20191015031504 75 98 1.0 4.0 0.00 0.00 0.00 92 1018.9
20191015031004 75 93 2.0 6.0 0.00 0.00 0.00 91 1019.0
20191015030504 75 93 2.0 6.0 0.00 0.00 0.00 91 1018.9
20191015030005 75 95 2.0 6.0 0.00 0.00 0.00 91 1018.9
20191015025505 75 96 2.0 5.0 0.00 0.00 0.00 90 1018.9
20191015025004 75 90 2.0 6.0 0.00 0.00 0.00 90 1018.9
20191015024505 75 80 1.0 6.0 0.00 0.00 0.00 90 1019.1
20191015024004 76 62 1.0 6.0 0.00 0.00 0.00 90 1019.0
20191015023505 76 52 1.0 3.0 0.00 0.00 0.00 90 1018.9
20191015023004 76 49 1.0 3.0 0.00 0.00 0.00 90 1018.9
20191015022505 76 49 1.0 2.0 0.00 0.00 0.00 90 1018.8
20191015022004 76 49 1.0 3.0 0.00 0.00 0.00 89 1018.8
20191015021504 76 49 1.0 3.0 0.00 0.00 0.00 89 1018.8
20191015021005 76 47 1.0 3.0 0.00 0.00 0.00 89 1018.7
20191015020504 76 45 1.0 2.0 0.00 0.00 0.00 88 1018.6
20191015020004 77 45 1.0 2.0 0.00 0.00 0.00 88 1018.5
20191015015504 77 45 1.0 2.0 0.00 0.00 0.00 88 1018.5
20191015015005 77 45 1.0 2.0 0.00 0.00 0.00 87 1018.6
20191015014504 77 45 1.0 2.0 0.00 0.00 0.00 88 1018.5
20191015014004 77 44 1.0 2.0 0.00 0.00 0.00 87 1018.3
20191015013504 77 44 1.0 2.0 0.00 0.00 0.00 88 1018.4
20191015013004 77 44 1.0 2.0 0.00 0.00 0.00 87 1018.3
20191015012504 77 44 1.0 3.0 0.00 0.00 0.00 87 1018.2
20191015012005 78 42 1.0 3.0 0.00 0.00 0.00 86 1018.2
20191015011504 78 41 1.0 2.0 0.00 0.00 0.00 87 1018.2
20191015011005 78 38 1.0 2.0 0.00 0.00 0.00 86 1018.1
20191015010504 78 59 1.0 2.0 0.00 0.00 0.00 86 1018.0
20191015010005 78 88 1.0 3.0 0.00 0.00 0.00 86 1017.9
20191015005504 78 97 1.0 3.0 0.00 0.00 0.00 86 1018.0
20191015005005 78 98 1.0 5.0 0.00 0.00 0.00 86 1017.9
20191015004504 78 103 2.0 5.0 0.00 0.00 0.00 86 1017.9
20191015004005 78 108 2.0 4.0 0.00 0.00 0.00 86 1017.7
20191015003504 78 100 3.0 6.0 0.00 0.00 0.00 86 1017.7
20191015003004 78 96 5.0 11.0 0.00 0.00 0.00 86 1017.6
20191015002504 78 96 5.0 11.0 0.00 0.00 0.00 85 1017.6
20191015002005 79 96 4.0 9.0 0.00 0.00 0.00 84 1017.4
20191015001504 79 97 5.0 11.0 0.00 0.00 0.00 85 1017.4
20191015001005 79 95 6.0 12.0 0.00 0.00 0.00 84 1017.5
20191015000504 79 96 6.0 12.0 0.00 0.00 0.00 84 1017.4
20191015000004 79 98 5.0 10.0 0.00 0.00 0.00 83 1017.4
20191014235505 80 96 5.0 10.0 0.00 0.00 0.00 83 1017.2
20191014235004 80 95 6.0 11.0 0.00 0.00 0.00 83 1017.3
20191014234505 80 97 5.0 11.0 0.00 0.00 0.00 82 1017.2
20191014234004 80 96 5.0 10.0 0.00 0.00 0.00 81 1017.1
20191014233505 81 95 6.0 12.0 0.00 0.00 0.00 81 1017.2
20191014233005 81 95 7.0 12.0 0.00 0.00 0.00 79 1017.0
20191014232504 81 95 6.0 12.0 0.00 0.00 0.00 79 1017.1
20191014232005 81 94 7.0 13.0 0.00 0.00 0.00 77 1017.0
20191014231504 82 95 7.0 13.0 0.00 0.00 0.00 75 1016.9
20191014231005 83 96 6.0 13.0 0.00 0.00 0.00 74 1016.9
20191014230504 83 95 6.0 8.0 0.00 0.00 0.00 65 1016.9
20191014230004 84 91 7.0 10.0 0.00 0.00 0.00 65 1016.8
20191014225505 84 88 7.0 10.0 0.00 0.00 0.00 65 1016.8
20191014225004 84 84 7.0 10.0 0.00 0.00 0.00 62 1016.7
20191014224504 84 82 6.0 10.0 0.00 0.00 0.00 63 1016.7
20191014224004 84 72 5.0 8.0 0.00 0.00 0.00 65 1016.8
20191014223505 85 58 5.0 7.0 0.00 0.00 0.00 63 1016.7
20191014223004 85 52 4.0 7.0 0.00 0.00 0.00 62 1016.7
20191014222504 85 51 5.0 8.0 0.00 0.00 0.00 61 1016.5
20191014222004 85 55 5.0 8.0 0.00 0.00 0.00 60 1016.6
20191014221505 85 60 4.0 7.0 0.00 0.00 0.00 61 1016.6
20191014221004 85 56 4.0 8.0 0.00 0.00 0.00 62 1016.4
20191014220505 86 65 5.0 9.0 0.00 0.00 0.00 61 1016.4
20191014220006 86 75 7.0 11.0 0.00 0.00 0.00 61 1016.4
20191014215504 86 76 7.0 11.0 0.00 0.00 0.00 59 1016.3
20191014215005 85 77 5.0 11.0 0.00 0.00 0.00 62 1016.4
20191014214504 85 71 3.0 8.0 0.00 0.00 0.00 62 1016.3
20191014214005 86 65 4.0 7.0 0.00 0.00 0.00 61 1016.4
20191014213504 86 81 5.0 8.0 0.00 0.00 0.00 61 1016.4
20191014213005 86 90 5.0 8.0 0.00 0.00 0.00 61 1016.3
20191014212504 87 95 4.0 7.0 0.00 0.00 0.00 61 1016.2
20191014212004 87 89 4.0 7.0 0.00 0.00 0.00 59 1016.3
20191014211504 87 86 3.0 7.0 0.00 0.00 0.00 61 1016.3
20191014211004 88 94 3.0 6.0 0.00 0.00 0.00 59 1016.3
20191014210504 88 94 2.0 6.0 0.00 0.00 0.00 61 1016.3
20191014210005 87 83 4.0 8.0 0.00 0.00 0.00 61 1016.2
20191014205504 87 75 5.0 9.0 0.00 0.00 0.00 59 1016.3
20191014205004 87 62 4.0 9.0 0.00 0.00 0.00 58 1016.3
20191014204504 88 37 2.0 4.0 0.00 0.00 0.00 57 1016.3
20191014204005 87 39 2.0 4.0 0.00 0.00 0.00 57 1016.3
20191014203504 87 58 2.0 4.0 0.00 0.00 0.00 61 1016.2
20191014203004 87 68 2.0 4.0 0.00 0.00 0.00 59 1016.2
20191014202505 87 63 3.0 6.0 0.00 0.00 0.00 59 1016.3
20191014202004 87 54 2.0 6.0 0.00 0.00 0.00 59 1016.1
20191014201504 87 62 3.0 6.0 0.00 0.00 0.00 60 1016.1
20191014201005 87 75 4.0 9.0 0.00 0.00 0.00 58 1016.0
20191014200504 87 87 4.0 9.0 0.00 0.00 0.00 59 1015.9
20191014200005 87 82 3.0 6.0 0.00 0.00 0.00 60 1016.0
20191014195504 88 59 3.0 6.0 0.00 0.00 0.00 61 1016.0
20191014195005 88 46 4.0 9.0 0.00 0.00 0.00 62 1016.0
20191014194504 87 40 4.0 9.0 0.00 0.00 0.00 60 1016.0
20191014194005 86 42 3.0 9.0 0.00 0.00 0.00 61 1016.0
20191014193504 86 44 2.0 6.0 0.00 0.00 0.00 62 1016.1
20191014193004 86 43 3.0 8.0 0.00 0.00 0.00 61 1016.1
20191014192504 87 69 4.0 9.0 0.00 0.00 0.00 59 1016.1
20191014192004 88 80 2.0 9.0 0.00 0.00 0.00 59 1016.1
20191014191504 90 55 1.0 4.0 0.00 0.00 0.00 56 1016.1
20191014191005 89 50 1.0 3.0 0.00 0.00 0.00 58 1016.2
20191014190504 88 40 2.0 4.0 0.00 0.00 0.00 63 1016.2
20191014190005 88 49 3.0 4.0 0.00 0.00 0.00 58 1016.2
20191014185504 87 62 3.0 7.0 0.00 0.00 0.00 60 1016.5
20191014185004 88 70 3.0 7.0 0.00 0.00 0.00 60 1016.4
20191014184505 88 78 2.0 7.0 0.00 0.00 0.00 62 1016.5
20191014184005 88 71 2.0 7.0 0.00 0.00 0.00 59 1016.5
20191014183504 89 63 2.0 4.0 0.00 0.00 0.00 58 1016.6
20191014183004 90 60 2.0 3.0 0.00 0.00 0.00 57 1016.6
20191014182504 90 55 1.0 3.0 0.00 0.00 0.00 58 1016.6
20191014182005 90 48 0.0 2.0 0.00 0.00 0.00 60 1016.6
20191014181505 90 197 1.0 3.0 0.00 0.00 0.00 59 1016.7
20191014181005 90 197 1.0 4.0 0.00 0.00 0.00 59 1016.7
20191014180505 89 160 1.0 4.0 0.00 0.00 0.00 58 1016.9
20191014180005 90 114 1.0 3.0 0.00 0.00 0.00 59 1017.0
20191014175504 90 98 1.0 2.0 0.00 0.00 0.00 58 1017.1
20191014175004 90 98 0.0 3.0 0.00 0.00 0.00 59 1017.2
20191014174504 89 97 1.0 3.0 0.00 0.00 0.00 57 1017.2
20191014174004 89 97 1.0 2.0 0.00 0.00 0.00 60 1017.4
20191014173504 88 98 1.0 2.0 0.00 0.00 0.00 60 1017.5
20191014173004 87 98 1.0 2.0 0.00 0.00 0.00 63 1017.5
20191014172504 87 97 1.0 2.0 0.00 0.00 0.00 63 1017.6
20191014172005 87 93 2.0 5.0 0.00 0.00 0.00 64 1017.6
20191014171504 87 88 2.0 5.0 0.00 0.00 0.00 62 1017.6
20191014171005 86 88 2.0 4.0 0.00 0.00 0.00 63 1017.7
20191014170504 86 82 3.0 4.0 0.00 0.00 0.00 61 1017.8
20191014170004 87 70 2.0 4.0 0.00 0.00 0.00 61 1018.0
20191014165504 86 70 2.0 3.0 0.00 0.00 0.00 62 1018.0
20191014165005 86 79 2.0 4.0 0.00 0.00 0.00 62 1018.0
20191014164505 86 65 3.0 5.0 0.00 0.00 0.00 62 1018.2
20191014164004 86 59 3.0 6.0 0.00 0.00 0.00 64 1018.2
20191014163505 85 71 3.0 6.0 0.00 0.00 0.00 65 1018.3
20191014163005 86 75 3.0 6.0 0.00 0.00 0.00 63 1018.3
20191014162505 86 77 2.0 4.0 0.00 0.00 0.00 65 1018.3
20191014162005 86 89 1.0 5.0 0.00 0.00 0.00 62 1018.4
20191014161504 86 89 1.0 5.0 0.00 0.00 0.00 62 1018.4